Location: Newark
(40.3500°N, 15.2333°E)
Time: 08:39:32
(UTC+00:00)

deb Explorer IX - All Passes

Search period start: 27 January 2020 00:00
Search period end: 06 February 2020 00:00
Orbit: 548 x 1101 km, 38.8° (Epoch: 26 January)

Date Brightness Start Highest point End Pass type
(mag) Time Alt. Az. Time Alt. Az. Time Alt. Az.
27 Jan - 00:24:20 10° W 00:31:28 56° SSW 00:38:11 10° SE night (unlit)
27 Jan - 02:12:46 10° W 02:18:04 23° SW 02:23:01 10° S night (unlit)
27 Jan - 18:41:38 10° SSW 18:47:17 31° SSE 18:53:25 10° E visible
27 Jan - 20:27:19 10° WSW 20:34:08 67° SSE 20:41:24 10° E visible
27 Jan - 22:14:24 10° W 22:21:37 80° S 22:28:53 10° E night (unlit)
28 Jan - 00:01:52 10° W 00:08:59 55° SSW 00:15:49 10° SE night (unlit)
28 Jan - 01:50:16 10° W 01:55:37 23° SW 02:00:41 10° S night (unlit)
28 Jan - 18:19:18 10° SSW 18:24:50 31° SSE 18:30:54 10° E visible
28 Jan - 20:04:57 10° WSW 20:11:39 67° SSE 20:18:54 10° E visible
28 Jan - 21:52:00 10° W 21:59:07 80° S 22:06:27 10° E night (unlit)
28 Jan - 23:39:24 10° W 23:46:30 55° SSW 23:53:25 10° SE night (unlit)
29 Jan - 01:27:46 10° W 01:33:09 23° SW 01:38:18 10° S night (unlit)
29 Jan - 17:57:00 10° SSW 18:02:23 31° SSE 18:08:22 10° E visible
29 Jan - 19:42:37 10° WSW 19:49:11 67° SSE 19:56:23 10° E visible
29 Jan - 21:29:36 10° W 21:36:38 79° S 21:43:58 10° E night (unlit)
29 Jan - 23:16:57 10° W 23:24:00 55° SSW 23:30:59 10° SE night (unlit)
30 Jan - 01:05:17 10° W 01:10:40 23° SW 01:15:54 10° S night (unlit)
30 Jan - 17:34:43 10° SSW 17:39:57 31° SSE 17:45:49 10° E visible
30 Jan - 19:20:18 10° WSW 19:26:43 67° SSE 19:33:52 10° E visible
30 Jan - 21:07:13 10° W 21:14:08 79° S 21:21:29 10° E visible
30 Jan - 22:54:31 10° W 23:01:30 54° SSW 23:08:32 10° SE night (unlit)
31 Jan - 00:42:48 10° W 00:48:12 23° SW 00:53:28 10° S night (unlit)
31 Jan - 17:12:27 10° SSW 17:17:32 30° SSE 17:23:15 10° E visible
31 Jan - 18:58:00 10° WSW 19:04:15 67° SSE 19:11:19 10° E visible
31 Jan - 20:44:51 10° W 20:51:39 79° S 20:58:58 10° E visible
31 Jan - 22:32:06 10° W 22:39:00 54° SSW 22:46:03 10° SE night (unlit)
01 Feb - 00:20:21 10° W 00:25:42 22° SW 00:30:59 10° S night (unlit)
01 Feb - 16:50:11 10° SSW 16:55:07 30° SSE 17:00:42 10° E visible
01 Feb - 18:35:42 10° WSW 18:41:48 67° SSE 18:48:46 10° E visible
01 Feb - 20:22:30 10° W 20:29:09 79° S 20:36:27 10° E visible
01 Feb - 22:09:41 10° W 22:16:29 53° SSW 22:23:33 10° SE night (unlit)
01 Feb - 23:57:54 10° W 00:03:12 22° SW 00:08:30 10° S night (unlit)
02 Feb - 16:27:56 10° SSW 16:32:42 30° SSE 16:38:08 10° E daylight
02 Feb - 18:13:25 10° WSW 18:19:20 67° SSE 18:26:11 10° E visible
02 Feb - 20:00:10 10° W 20:06:40 78° S 20:13:54 10° E visible
02 Feb - 21:47:17 10° W 21:53:58 52° SSW 22:01:02 10° SE night (unlit)
02 Feb - 23:35:28 10° W 23:40:42 22° SW 23:45:58 10° S night (unlit)
03 Feb - 16:05:41 10° SSW 16:10:18 29° SSE 16:15:34 10° E daylight
03 Feb - 17:51:08 10° WSW 17:56:54 67° SSE 18:03:37 10° E visible
03 Feb - 19:37:50 10° W 19:44:12 78° S 19:51:20 10° E visible
03 Feb - 21:24:54 10° W 21:31:28 52° SSW 21:38:29 10° SE visible
03 Feb - 23:13:03 10° W 23:18:11 21° SW 23:23:25 10° S night (unlit)
04 Feb - 15:43:27 10° SSW 15:47:54 29° SSE 15:53:00 10° E daylight
04 Feb - 17:28:53 10° WSW 17:34:28 66° SSE 17:41:02 10° E visible
04 Feb - 19:15:32 10° W 19:21:43 78° S 19:28:46 10° E visible
04 Feb - 21:02:32 10° W 21:08:57 51° SSW 21:15:55 10° SE visible
04 Feb - 22:50:40 10° W 22:55:41 21° SW 23:00:50 10° S night (unlit)
05 Feb - 15:21:13 10° SSW 15:25:31 28° SSE 15:30:27 10° E daylight
05 Feb - 17:06:37 10° WSW 17:12:03 66° SSE 17:18:27 10° E visible
05 Feb - 18:53:14 10° W 18:59:15 77° S 19:06:11 10° E visible
05 Feb - 20:40:10 10° W 20:46:27 50° SSW 20:53:20 10° SE visible
05 Feb - 22:28:17 10° W 22:33:10 20° SW 22:38:13 10° S night (unlit)
